Tracking 19177 objects as of 24-May-2018
HD Live streaming from Space Station
objects crossing your sky now

CORVUS BC2

Track CORVUS BC2 now!
10-day predictions


NORAD ID: 42846
Int'l Code: 2017-042X
Perigee: 593.8 km
Apogee: 605.1 km
Inclination: 97.6 °
Period: 96.5 minutes
Semi major axis: 6970 km
RCS: Unknown
Launch date: July 14, 2017
Source: United States (US)
Launch site: TYURATAM MISSILE AND SPACE COMPLEX (TTMTR)
aabbcc
Your satellite tracking list
Your tracking list is empty




NASA's NSSDC Master Catalog

Two Line Element Set (TLE):
1 42846U 17042X   18143.18780151 +.00000050 +00000-0 +10322-4 0  9993
2 42846 097.5995 046.9609 0008081 282.5299 077.5016 14.91809297046644
Source of the keplerian elements: AFSPC